EW7336 Weather Reports


time (UTC)temp
C
wind
direction
speed
KPH
gust
KPH
rain 1hr
cm
rain 24hr
cm
rain mn
cm
humidity
%
barometer
mb
20260905204528 33 322 1.6 8.0 0.00 0.00 0.00 58 1009.9
20260905203026 33 306 0.0 9.7 0.00 0.00 0.00 58 1010.0
20260905201531 32 311 1.6 6.4 0.00 0.00 0.00 58 1010.3
20260905200029 32 240 1.6 8.0 0.00 0.00 0.00 58 1010.5
20260905194517 32 219 0.0 4.8 0.00 0.00 0.00 57 1010.6
20260905193025 32 221 3.2 16.1 0.00 0.00 0.00 58 1010.7
20260905191512 32 202 4.8 11.3 0.00 0.00 0.00 60 1010.9
20260905190014 31 187 4.8 12.9 0.00 0.00 0.00 59 1011.2
20260905184515 31 184 1.6 9.7 0.00 0.00 0.00 60 1011.3
20260905183105 31 211 4.8 14.5 0.00 0.00 0.00 61 1011.4
20260905181510 31 211 6.4 14.5 0.00 0.00 0.00 61 1011.4
20260905180100 30 214 6.4 16.1 0.00 0.00 0.00 60 1011.4
20260905174609 30 207 6.4 12.9 0.00 0.00 0.00 61 1011.5
20260905173109 30 189 1.6 9.7 0.00 0.00 0.00 61 1011.7
20260905171553 30 258 3.2 11.3 0.00 0.00 0.00 63 1012.0
20260905170053 29 217 3.2 8.0 0.00 0.00 0.00 62 1012.2
20260905164550 29 194 1.6 12.9 0.00 0.00 0.00 63 1012.5
20260905163052 28 185 1.6 6.4 0.00 0.00 0.00 62 1012.7
20260905161541 28 205 0.0 3.2 0.00 0.00 0.00 62 1012.9
20260905160048 27 197 1.6 8.0 0.00 0.00 0.00 66 1012.8
20260905154539 27 169 0.0 11.3 0.00 0.00 0.00 66 1012.6
20260905153029 27 182 0.0 8.0 0.00 0.00 0.00 63 1012.3
20260905151524 27 123 0.0 4.8 0.00 0.00 0.00 64 1012.5
20260905150026 26 137 0.0 8.0 0.00 0.00 0.00 65 1012.6
20260905144537 26 113 0.0 6.4 0.00 0.00 0.00 67 1012.7
20260905143019 25 109 0.0 8.0 0.00 0.00 0.00 70 1012.6
20260905141507 25 71 0.0 9.7 0.00 0.00 0.00 73 1012.7
20260905140003 24 63 0.0 3.2 0.00 0.00 0.00 76 1013.1
20260905134607 23 53 0.0 4.8 0.00 0.00 0.00 78 1013.3
20260905133058 23 136 0.0 3.2 0.00 0.00 0.00 80 1013.4
20260905131556 22 157 0.0 4.8 0.00 0.00 0.00 82 1013.6
20260905130055 22 80 0.0 1.6 0.00 0.00 0.00 84 1013.7
20260905124548 21 155 0.0 4.8 0.00 0.00 0.00 85 1013.6
20260905123045 21 69 0.0 4.8 0.00 0.00 0.00 86 1013.5
20260905121544 21 53 0.0 1.6 0.00 0.00 0.00 86 1013.6
20260905120042 21 53 0.0 3.2 0.00 0.00 0.00 86 1013.4
20260905114610 21 47 0.0 3.2 0.00 0.00 0.00 85 1013.4
20260905113038 21 109 0.0 3.2 0.00 0.00 0.00 84 1013.5
20260905111542 21 123 0.0 8.0 0.00 0.00 0.00 84 1013.5
20260905110034 22 28 3.2 9.7 0.00 0.00 0.00 86 1013.3
20260905104534 22 63 1.6 11.3 0.00 0.00 0.00 89 1013.1
20260905103035 22 46 1.6 17.7 0.00 0.00 0.00 90 1013.5
20260905101527 22 76 8.0 19.3 0.00 0.00 0.00 95 1013.1
20260905100027 22 51 0.0 0.0 0.00 0.00 0.00 95 1011.8
20260905094526 22 51 0.0 0.0 0.00 0.00 0.00 95 1011.7
20260905093029 22 51 0.0 0.0 0.00 0.00 0.00 95 1011.6
20260905091525 22 51 0.0 0.0 0.00 0.00 0.00 95 1011.4
20260905090024 22 51 0.0 0.0 0.00 0.00 0.00 95 1011.4
20260905084523 22 51 0.0 0.0 0.00 0.00 0.00 95 1011.7
20260905083023 22 51 0.0 1.6 0.00 0.00 0.00 95 1011.5
20260905081522 22 51 0.0 0.0 0.00 0.00 0.00 95 1011.3
20260905080022 22 51 0.0 0.0 0.00 0.00 0.00 94 1011.0
20260905074522 22 51 0.0 0.0 0.00 0.00 0.00 94 1010.9
20260905073032 22 51 0.0 0.0 0.00 0.00 0.00 95 1010.8
20260905071524 22 51 0.0 0.0 0.00 0.00 0.00 95 1010.7
20260905070017 22 51 0.0 0.0 0.00 0.00 0.00 95 1010.9
20260905064514 22 51 0.0 0.0 0.00 0.00 0.00 94 1011.3
20260905063012 22 51 0.0 0.0 0.00 0.00 0.00 94 1011.5
20260905061510 22 51 0.0 0.0 0.00 0.00 0.00 94 1011.6
20260905060014 22 51 0.0 0.0 0.00 0.00 0.00 94 1011.8
20260905054507 22 51 0.0 0.0 0.00 0.00 0.00 94 1011.9
20260905053005 22 51 0.0 0.0 0.00 0.00 0.00 94 1012.0
20260905051503 22 51 0.0 0.0 0.00 0.00 0.00 94 1012.2
20260905050107 22 51 0.0 0.0 0.00 0.00 0.00 93 1012.2
20260905044602 22 51 0.0 0.0 0.00 0.00 0.00 93 1012.5
20260905043056 22 51 0.0 0.0 0.00 0.00 0.00 93 1012.5
20260905041552 22 51 0.0 0.0 0.00 0.00 0.00 93 1012.4
20260905040055 22 51 0.0 0.0 0.00 0.00 0.00 92 1012.4
20260905034605 22 51 0.0 0.0 0.00 0.00 0.00 92 1012.4
20260905033102 22 51 0.0 0.0 0.00 0.00 0.00 92 1012.5
20260905031548 22 51 0.0 0.0 0.00 0.00 0.00 91 1012.4
20260905030047 23 51 0.0 0.0 0.00 0.00 0.00 91 1012.3
20260905024550 23 51 0.0 0.0 0.00 0.00 0.00 91 1012.3
20260905023120 23 51 0.0 0.0 0.00 0.00 0.00 90 1012.3
20260905021546 23 51 0.0 0.0 0.00 0.00 0.00 89 1012.4
20260905020045 23 51 0.0 0.0 0.00 0.00 0.00 89 1012.3
20260905014544 24 51 0.0 0.0 0.00 0.00 0.00 87 1012.0
20260905013044 24 51 0.0 0.0 0.00 0.00 0.00 86 1011.9
20260905011554 25 51 0.0 0.0 0.00 0.00 0.00 84 1011.9
20260905010044 25 51 0.0 0.0 0.00 0.00 0.00 82 1011.8
20260905004542 26 51 0.0 0.0 0.00 0.00 0.00 80 1011.7
20260905003043 27 51 0.0 1.6 0.00 0.00 0.00 75 1011.7
20260905001542 27 51 0.0 0.0 0.00 0.00 0.00 72 1011.8
20260905000046 28 51 0.0 1.6 0.00 0.00 0.00 68 1011.8
20260904234539 30 51 0.0 3.2 0.00 0.00 0.00 66 1011.6
20260904233039 30 52 0.0 1.6 0.00 0.00 0.00 63 1011.5
20260904231537 31 52 0.0 3.2 0.00 0.00 0.00 62 1011.4
20260904230037 32 35 0.0 1.6 0.00 0.00 0.00 61 1011.6
20260904224535 32 35 0.0 1.6 0.00 0.00 0.00 59 1011.5
20260904223035 32 35 0.0 3.2 0.00 0.00 0.00 58 1011.7
20260904221533 32 35 0.0 6.4 0.00 0.00 0.00 59 1011.8
20260904220058 33 40 0.0 3.2 0.00 0.00 0.00 60 1011.7
20260904214531 33 39 0.0 3.2 0.00 0.00 0.00 59 1011.9
20260904213034 33 39 0.0 3.2 0.00 0.00 0.00 60 1012.0
20260904211528 34 46 1.6 4.8 0.00 0.00 0.00 59 1012.1
20260904210034 33 44 0.0 4.8 0.00 0.00 0.00 59 1012.4